GW6705 Weather Reports


time (UTC)temp
C
wind
direction
speed
KPH
gust
KPH
rain 1hr
cm
rain 24hr
cm
rain mn
cm
humidity
%
barometer
mb
20260507080239 11 110 3.2 4.8 0.00 0.00 0.00 42 1020.3
20260507075734 11 102 4.8 6.4 0.00 0.00 0.00 42 1020.3
20260507075231 11 120 4.8 4.8 0.00 0.00 0.00 42 1020.4
20260507074727 11 124 1.6 6.4 0.00 0.00 0.00 42 1020.2
20260507074225 11 129 3.2 4.8 0.00 0.00 0.00 42 1020.0
20260507073721 10 85 3.2 8.0 0.00 0.00 0.00 43 1020.3
20260507073218 10 114 3.2 6.4 0.00 0.00 0.00 43 1020.2
20260507072716 10 132 4.8 9.7 0.00 0.00 0.00 43 1020.3
20260507072213 10 121 0.0 9.7 0.00 0.00 0.00 43 1020.4
20260507071711 10 130 4.8 6.4 0.00 0.00 0.00 43 1020.0
20260507071207 10 129 4.8 8.0 0.00 0.00 0.00 43 1020.3
20260507070704 10 116 3.2 6.4 0.00 0.00 0.00 43 1020.4
20260507070201 11 127 4.8 4.8 0.00 0.00 0.00 43 1020.3
20260507065657 11 123 6.4 6.4 0.00 0.00 0.00 42 1020.3
20260507065154 11 136 3.2 6.4 0.00 0.00 0.00 42 1020.4
20260507064652 11 134 4.8 8.0 0.00 0.00 0.00 42 1020.4
20260507064150 11 126 4.8 6.4 0.00 0.00 0.00 42 1020.3
20260507063648 11 137 3.2 8.0 0.00 0.00 0.00 41 1020.0
20260507063144 11 130 3.2 6.4 0.00 0.00 0.00 41 1020.2
20260507062641 11 123 3.2 8.0 0.00 0.00 0.00 40 1020.0
20260507062139 11 152 1.6 8.0 0.00 0.00 0.00 40 1020.2
20260507061636 11 136 3.2 8.0 0.00 0.00 0.00 40 1020.2
20260507061134 11 155 3.2 6.4 0.00 0.00 0.00 40 1020.0
20260507060632 11 138 4.8 11.3 0.00 0.00 0.00 40 1020.0
20260507060128 11 121 4.8 6.4 0.00 0.00 0.00 40 1020.0
20260507055624 12 147 4.8 8.0 0.00 0.00 0.00 40 1020.2
20260507055120 12 129 3.2 16.1 0.00 0.00 0.00 40 1019.8
20260507054616 12 149 4.8 8.0 0.00 0.00 0.00 40 1019.9
20260507054113 12 146 3.2 17.7 0.00 0.00 0.00 39 1019.8
20260507053611 12 141 3.2 14.5 0.00 0.00 0.00 39 1019.9
20260507053109 12 122 3.2 8.0 0.00 0.00 0.00 39 1019.9
20260507052607 12 135 6.4 12.9 0.00 0.00 0.00 39 1020.0
20260507052103 12 117 4.8 6.4 0.00 0.00 0.00 40 1019.8
20260507051601 12 150 3.2 8.0 0.00 0.00 0.00 39 1019.9
20260507051057 12 126 8.0 8.0 0.00 0.00 0.00 39 1019.9
20260507050554 12 143 9.7 11.3 0.00 0.00 0.00 39 1019.7
20260507050051 12 119 6.4 9.7 0.00 0.00 0.00 39 1019.8
20260507045547 12 174 3.2 11.3 0.00 0.00 0.00 38 1019.6
20260507045045 12 207 3.2 9.7 0.00 0.00 0.00 38 1019.6
20260507044541 12 139 8.0 12.9 0.00 0.00 0.00 38 1019.7
20260507044038 12 146 4.8 8.0 0.00 0.00 0.00 38 1019.7
20260507043534 12 132 0.0 9.7 0.00 0.00 0.00 38 1019.6
20260507043032 12 135 8.0 12.9 0.00 0.00 0.00 38 1019.6
20260507042527 12 121 3.2 8.0 0.00 0.00 0.00 38 1019.4
20260507042023 12 130 4.8 9.7 0.00 0.00 0.00 38 1019.6
20260507041520 12 160 3.2 6.4 0.00 0.00 0.00 38 1019.3
20260507041017 12 164 1.6 9.7 0.00 0.00 0.00 38 1019.2
20260507040513 12 136 6.4 8.0 0.00 0.00 0.00 37 1019.4
20260507040009 12 105 0.0 4.8 0.00 0.00 0.00 37 1019.3
20260507035506 13 99 3.2 12.9 0.00 0.00 0.00 37 1019.1
20260507035002 13 149 4.8 6.4 0.00 0.00 0.00 37 1019.2
20260507034459 13 201 3.2 6.4 0.00 0.00 0.00 37 1019.0
20260507033957 13 152 3.2 8.0 0.00 0.00 0.00 37 1018.9
20260507033455 13 139 6.4 8.0 0.00 0.00 0.00 37 1019.0
20260507032952 13 129 4.8 6.4 0.00 0.00 0.00 36 1018.9
20260507032449 13 164 3.2 6.4 0.00 0.00 0.00 36 1018.9
20260507031945 13 136 3.2 9.7 0.00 0.00 0.00 36 1018.7
20260507031441 13 200 4.8 9.7 0.00 0.00 0.00 36 1018.7
20260507030938 13 137 6.4 14.5 0.00 0.00 0.00 35 1018.7
20260507030435 14 127 3.2 11.3 0.00 0.00 0.00 35 1018.3
20260507025932 14 145 1.6 8.0 0.00 0.00 0.00 35 1018.5
20260507025430 14 189 6.4 12.9 0.00 0.00 0.00 35 1018.4
20260507024927 14 126 1.6 6.4 0.00 0.00 0.00 35 1018.4
20260507024424 15 187 3.2 4.8 0.00 0.00 0.00 34 1018.4
20260507023920 15 215 3.2 8.0 0.00 0.00 0.00 34 1018.3
20260507023417 15 169 3.2 9.7 0.00 0.00 0.00 34 1018.1
20260507022914 15 201 6.4 6.4 0.00 0.00 0.00 33 1018.0
20260507022411 15 139 3.2 3.2 0.00 0.00 0.00 33 1018.1
20260507021907 16 142 1.6 11.3 0.00 0.00 0.00 33 1018.0
20260507021402 16 149 4.8 8.0 0.00 0.00 0.00 32 1017.8
20260507020900 16 162 3.2 6.4 0.00 0.00 0.00 31 1017.9
20260507020356 17 180 0.0 6.4 0.00 0.00 0.00 31 1017.9
20260507015853 17 261 3.2 12.9 0.00 0.00 0.00 30 1017.7
20260507015352 17 200 3.2 8.0 0.00 0.00 0.00 30 1017.7
20260507014848 18 216 8.0 8.0 0.00 0.00 0.00 29 1017.7
20260507014344 18 197 4.8 14.5 0.00 0.00 0.00 29 1017.4
20260507013841 19 219 4.8 8.0 0.00 0.00 0.00 28 1017.1
20260507013338 18 168 1.6 8.0 0.00 0.00 0.00 29 1017.3
20260507012836 18 208 9.7 17.7 0.00 0.00 0.00 29 1017.2
20260507012331 18 223 3.2 16.1 0.00 0.00 0.00 28 1017.2
20260507011829 19 237 8.0 16.1 0.00 0.00 0.00 28 1017.2
20260507011326 20 225 6.4 11.3 0.00 0.00 0.00 27 1017.2
20260507010826 20 225 8.0 17.7 0.00 0.00 0.00 27 1017.1
20260507010321 20 244 9.7 9.7 0.00 0.00 0.00 26 1017.0
20260507005819 20 184 0.0 4.8 0.00 0.00 0.00 27 1017.1
20260507005316 20 203 3.2 9.7 0.00 0.00 0.00 26 1017.0
20260507004812 20 217 6.4 16.1 0.00 0.00 0.00 26 1017.2
20260507004310 20 162 0.0 8.0 0.00 0.00 0.00 26 1017.1
20260507003807 21 272 11.3 11.3 0.00 0.00 0.00 25 1017.0
20260507003301 21 209 0.0 11.3 0.00 0.00 0.00 25 1017.0
20260507002757 21 228 4.8 4.8 0.00 0.00 0.00 25 1016.8
20260507002253 21 236 1.6 16.1 0.00 0.00 0.00 24 1017.0
20260507001751 21 261 8.0 11.3 0.00 0.00 0.00 24 1017.0
20260507001248 21 224 8.0 9.7 0.00 0.00 0.00 24 1016.8
20260507000744 21 275 6.4 9.7 0.00 0.00 0.00 24 1017.0
20260507000240 21 233 3.2 11.3 0.00 0.00 0.00 24 1017.0
20260506235737 21 205 3.2 9.7 0.00 0.00 0.00 24 1016.7
20260506235232 21 141 3.2 12.9 0.00 0.00 0.00 25 1016.8
20260506234730 21 240 4.8 11.3 0.00 0.00 0.00 24 1016.7
20260506234227 21 137 3.2 6.4 0.00 0.00 0.00 24 1016.7
20260506233724 21 205 4.8 9.7 0.00 0.00 0.00 24 1016.8
20260506233220 20 215 4.8 14.5 0.00 0.00 0.00 24 1017.0
20260506232717 22 232 4.8 8.0 0.00 0.00 0.00 23 1016.8
20260506232212 21 234 1.6 8.0 0.00 0.00 0.00 23 1017.1
20260506231710 21 314 6.4 8.0 0.00 0.00 0.00 24 1017.0
20260506231208 21 279 4.8 8.0 0.00 0.00 0.00 23 1017.2
20260506230704 22 341 3.2 9.7 0.00 0.00 0.00 22 1017.0
20260506230201 21 253 4.8 16.1 0.00 0.00 0.00 22 1016.8
20260506225658 21 305 8.0 11.3 0.00 0.00 0.00 23 1016.8
20260506225155 21 268 6.4 11.3 0.00 0.00 0.00 23 1017.1
20260506224651 21 245 9.7 14.5 0.00 0.00 0.00 23 1016.8
20260506224148 20 164 4.8 6.4 0.00 0.00 0.00 24 1017.1
20260506223644 21 219 9.7 12.9 0.00 0.00 0.00 23 1017.1
20260506223140 21 321 6.4 9.7 0.00 0.00 0.00 23 1017.0
20260506222637 21 335 6.4 6.4 0.00 0.00 0.00 24 1017.3
20260506222133 21 333 12.9 14.5 0.00 0.00 0.00 24 1017.2
20260506221631 21 274 4.8 12.9 0.00 0.00 0.00 23 1017.3
20260506221129 20 299 6.4 14.5 0.00 0.00 0.00 24 1017.2
20260506220625 21 274 4.8 11.3 0.00 0.00 0.00 23 1017.5
20260506220121 21 346 8.0 11.3 0.00 0.00 0.00 23 1017.3
20260506215618 21 302 4.8 16.1 0.00 0.00 0.00 24 1017.5
20260506215113 21 292 4.8 8.0 0.00 0.00 0.00 23 1017.4
20260506214610 21 62 1.6 12.9 0.00 0.00 0.00 24 1017.7
20260506214108 20 46 1.6 8.0 0.00 0.00 0.00 24 1017.8
20260506213606 20 233 3.2 8.0 0.00 0.00 0.00 23 1017.9
20260506213102 20 316 4.8 11.3 0.00 0.00 0.00 23 1018.0
20260506212559 20 237 3.2 11.3 0.00 0.00 0.00 23 1017.9
20260506212054 20 284 4.8 14.5 0.00 0.00 0.00 24 1018.0
20260506211550 20 257 17.7 17.7 0.00 0.00 0.00 23 1018.0
20260506211048 20 315 6.4 6.4 0.00 0.00 0.00 26 1018.0
20260506210544 20 241 3.2 9.7 0.00 0.00 0.00 24 1018.0
20260506210041 20 264 6.4 11.3 0.00 0.00 0.00 24 1018.0
20260506205538 21 312 11.3 19.3 0.00 0.00 0.00 24 1018.0
20260506205033 20 300 3.2 6.4 0.00 0.00 0.00 26 1018.0
20260506204531 20 293 6.4 6.4 0.00 0.00 0.00 26 1018.1
20260506204028 20 337 8.0 9.7 0.00 0.00 0.00 25 1018.4
20260506203526 20 323 4.8 9.7 0.00 0.00 0.00 25 1018.4
20260506203022 20 330 4.8 9.7 0.00 0.00 0.00 25 1018.4
20260506202520 19 158 3.2 11.3 0.00 0.00 0.00 26 1018.4
20260506202016 18 100 1.6 9.7 0.00 0.00 0.00 26 1018.3
20260506201514 18 201 4.8 6.4 0.00 0.00 0.00 26 1018.1
20260506201010 18 192 3.2 6.4 0.00 0.00 0.00 25 1018.4
20260506200506 18 303 4.8 8.0 0.00 0.00 0.00 27 1018.5
20260506200003 18 316 6.4 12.9 0.00 0.00 0.00 28 1018.5
20260506195500 18 10 3.2 4.8 0.00 0.00 0.00 26 1018.4
20260506194956 18 269 0.0 8.0 0.00 0.00 0.00 25 1018.6
20260506194454 18 298 4.8 17.7 0.00 0.00 0.00 27 1018.6
20260506193950 18 305 6.4 8.0 0.00 0.00 0.00 26 1018.4
20260506193448 18 279 1.6 9.7 0.00 0.00 0.00 26 1018.5
20260506192944 18 291 3.2 8.0 0.00 0.00 0.00 27 1018.5
20260506192441 18 334 8.0 8.0 0.00 0.00 0.00 26 1018.6
20260506191938 18 27 3.2 8.0 0.00 0.00 0.00 26 1018.6
20260506191434 18 106 0.0 8.0 0.00 0.00 0.00 26 1018.6
20260506190931 17 330 6.4 11.3 0.00 0.00 0.00 28 1018.6
20260506190428 17 111 0.0 6.4 0.00 0.00 0.00 27 1018.4
20260506185925 17 271 4.8 12.9 0.00 0.00 0.00 28 1018.7
20260506185422 17 328 3.2 9.7 0.00 0.00 0.00 27 1018.6
20260506184919 17 161 4.8 4.8 0.00 0.00 0.00 28 1018.6
20260506184416 17 0 3.2 9.7 0.00 0.00 0.00 29 1018.7
20260506183913 17 325 6.4 9.7 0.00 0.00 0.00 28 1018.9
20260506183408 17 303 4.8 12.9 0.00 0.00 0.00 28 1018.9
20260506182906 17 303 8.0 9.7 0.00 0.00 0.00 28 1019.0
20260506182403 17 118 3.2 4.8 0.00 0.00 0.00 28 1019.2
20260506181859 17 332 6.4 8.0 0.00 0.00 0.00 29 1019.2
20260506181358 17 334 8.0 20.9 0.00 0.00 0.00 29 1019.1
20260506180855 16 12 3.2 3.2 0.00 0.00 0.00 30 1019.0
20260506180351 16 83 1.6 6.4 0.00 0.00 0.00 29 1019.1
20260506175848 16 19 3.2 12.9 0.00 0.00 0.00 31 1019.0
20260506175344 15 148 0.0 6.4 0.00 0.00 0.00 32 1018.9
20260506174841 15 219 3.2 11.3 0.00 0.00 0.00 31 1019.0
20260506174339 15 342 3.2 6.4 0.00 0.00 0.00 32 1019.0
20260506173836 16 280 8.0 8.0 0.00 0.00 0.00 31 1019.0
20260506173333 16 2 0.0 6.4 0.00 0.00 0.00 33 1018.9
20260506172830 15 17 3.2 8.0 0.00 0.00 0.00 32 1018.7
20260506172327 15 333 3.2 14.5 0.00 0.00 0.00 34 1019.0
20260506171824 15 13 3.2 6.4 0.00 0.00 0.00 33 1018.6
20260506171321 15 299 3.2 9.7 0.00 0.00 0.00 33 1018.7
20260506170819 15 356 3.2 6.4 0.00 0.00 0.00 34 1018.6
20260506170314 15 347 0.0 3.2 0.00 0.00 0.00 32 1018.6
20260506165814 14 332 3.2 6.4 0.00 0.00 0.00 33 1018.7
20260506165311 14 52 6.4 6.4 0.00 0.00 0.00 33 1018.5
20260506164807 15 62 4.8 4.8 0.00 0.00 0.00 33 1018.7
20260506164304 13 184 1.6 4.8 0.00 0.00 0.00 34 1018.6
20260506163801 13 315 3.2 8.0 0.00 0.00 0.00 34 1018.5
20260506163256 13 17 6.4 8.0 0.00 0.00 0.00 33 1018.5
20260506162752 13 4 0.0 3.2 0.00 0.00 0.00 34 1018.5
20260506162250 13 321 3.2 4.8 0.00 0.00 0.00 33 1018.6
20260506161747 13 197 3.2 4.8 0.00 0.00 0.00 33 1018.5
20260506161244 13 123 3.2 6.4 0.00 0.00 0.00 34 1018.4
20260506160742 12 130 0.0 6.4 0.00 0.00 0.00 35 1018.5
20260506160238 12 285 3.2 4.8 0.00 0.00 0.00 36 1018.3
20260506155737 12 265 0.0 3.2 0.00 0.00 0.00 36 1018.5
20260506155233 12 31 0.0 6.4 0.00 0.00 0.00 37 1018.3
20260506153341 11 331 1.6 4.8 0.00 0.00 0.00 36 1018.3
20260506152837 11 114 6.4 6.4 0.00 0.00 0.00 37 1018.5
20260506152335 10 19 0.0 4.8 0.00 0.00 0.00 38 1018.1
20260506151833 10 331 4.8 6.4 0.00 0.00 0.00 39 1018.1
20260506151329 10 66 1.6 6.4 0.00 0.00 0.00 38 1018.0
20260506150827 10 79 1.6 3.2 0.00 0.00 0.00 41 1018.1
20260506150323 9 133 6.4 6.4 0.00 0.00 0.00 41 1018.3
20260506145820 8 108 4.8 4.8 0.00 0.00 0.00 44 1018.1
20260506145316 8 83 3.2 3.2 0.00 0.00 0.00 45 1018.1
20260506144814 8 353 3.2 3.2 0.00 0.00 0.00 46 1018.1
20260506144311 8 119 0.0 3.2 0.00 0.00 0.00 46 1018.0
20260506143809 8 76 3.2 4.8 0.00 0.00 0.00 47 1017.9
20260506143306 7 82 3.2 6.4 0.00 0.00 0.00 46 1017.8
20260506142804 7 117 0.0 3.2 0.00 0.00 0.00 48 1017.8
20260506142302 7 89 3.2 3.2 0.00 0.00 0.00 48 1017.8
20260506141800 7 109 3.2 6.4 0.00 0.00 0.00 49 1017.9
20260506141258 6 102 3.2 6.4 0.00 0.00 0.00 51 1017.7
20260506140755 6 114 3.2 4.8 0.00 0.00 0.00 52 1017.9
20260506140252 6 111 3.2 4.8 0.00 0.00 0.00 52 1017.9
20260506135749 6 121 3.2 4.8 0.00 0.00 0.00 52 1017.8
20260506135245 6 112 3.2 4.8 0.00 0.00 0.00 53 1017.7
20260506134742 6 121 3.2 4.8 0.00 0.00 0.00 53 1017.7
20260506134238 6 114 3.2 4.8 0.00 0.00 0.00 53 1017.5
20260506133736 6 101 0.0 6.4 0.00 0.00 0.00 54 1017.5
20260506133232 6 124 3.2 8.0 0.00 0.00 0.00 54 1017.4
20260506132729 6 122 4.8 6.4 0.00 0.00 0.00 53 1017.3
20260506132226 6 110 4.8 6.4 0.00 0.00 0.00 54 1017.2
20260506131724 5 109 4.8 6.4 0.00 0.00 0.00 54 1017.2
20260506131220 5 109 4.8 6.4 0.00 0.00 0.00 55 1017.1
20260506130717 5 103 4.8 6.4 0.00 0.00 0.00 56 1017.2
20260506130214 5 115 4.8 6.4 0.00 0.00 0.00 56 1017.2
20260506125712 5 106 4.8 6.4 0.00 0.00 0.00 56 1017.2
20260506125209 5 100 4.8 8.0 0.00 0.00 0.00 56 1017.1
20260506124707 5 106 4.8 4.8 0.00 0.00 0.00 57 1017.0
20260506124205 5 107 4.8 6.4 0.00 0.00 0.00 57 1017.0
20260506123702 5 109 4.8 6.4 0.00 0.00 0.00 58 1016.8
20260506123201 5 118 4.8 8.0 0.00 0.00 0.00 58 1016.6
20260506122657 5 105 3.2 6.4 0.00 0.00 0.00 58 1016.7
20260506122155 5 115 4.8 6.4 0.00 0.00 0.00 58 1016.5
20260506121653 5 112 4.8 6.4 0.00 0.00 0.00 57 1016.5
20260506121148 5 101 4.8 6.4 0.00 0.00 0.00 57 1016.5
20260506120647 5 127 3.2 8.0 0.00 0.00 0.00 57 1016.5
20260506120144 5 111 3.2 4.8 0.00 0.00 0.00 56 1016.6
20260506115642 5 129 4.8 6.4 0.00 0.00 0.00 56 1016.7
20260506115140 5 114 6.4 6.4 0.00 0.00 0.00 56 1016.5
20260506114637 5 102 4.8 4.8 0.00 0.00 0.00 57 1016.6
20260506114135 5 112 3.2 6.4 0.00 0.00 0.00 58 1016.6
20260506113633 4 110 4.8 6.4 0.00 0.00 0.00 60 1016.6
20260506113130 3 114 4.8 8.0 0.00 0.00 0.00 60 1016.5
20260506112626 3 117 4.8 8.0 0.00 0.00 0.00 60 1016.4
20260506112124 4 109 4.8 8.0 0.00 0.00 0.00 60 1016.4
20260506111621 4 124 4.8 8.0 0.00 0.00 0.00 60 1016.2
20260506111119 4 124 8.0 9.7 0.00 0.00 0.00 60 1016.5
20260506110616 4 114 4.8 6.4 0.00 0.00 0.00 60 1016.4
20260506110114 4 122 6.4 8.0 0.00 0.00 0.00 60 1016.4
20260506105610 4 115 3.2 6.4 0.00 0.00 0.00 60 1016.5
20260506105107 3 146 3.2 8.0 0.00 0.00 0.00 60 1016.4
20260506104605 4 125 6.4 6.4 0.00 0.00 0.00 60 1016.2
20260506104102 4 104 3.2 6.4 0.00 0.00 0.00 60 1016.4
20260506103559 4 109 4.8 8.0 0.00 0.00 0.00 59 1016.4
20260506103056 4 137 8.0 9.7 0.00 0.00 0.00 59 1016.1
20260506102554 4 119 6.4 8.0 0.00 0.00 0.00 59 1016.1
20260506102052 4 118 6.4 9.7 0.00 0.00 0.00 60 1016.4
20260506101548 3 127 6.4 9.7 0.00 0.00 0.00 60 1016.2
20260506101045 3 127 3.2 6.4 0.00 0.00 0.00 60 1016.4
20260506100543 4 104 4.8 6.4 0.00 0.00 0.00 59 1016.2
20260506100041 4 93 3.2 6.4 0.00 0.00 0.00 59 1016.4
20260506095540 4 105 3.2 6.4 0.00 0.00 0.00 58 1016.2
20260506095036 5 122 4.8 6.4 0.00 0.00 0.00 57 1016.2
20260506094533 5 107 3.2 6.4 0.00 0.00 0.00 57 1016.2
20260506094031 5 130 4.8 8.0 0.00 0.00 0.00 56 1016.2
20260506093529 5 131 6.4 8.0 0.00 0.00 0.00 55 1016.1
20260506093027 5 128 4.8 6.4 0.00 0.00 0.00 54 1016.1
20260506092524 5 139 1.6 8.0 0.00 0.00 0.00 54 1016.2
20260506092021 5 179 1.6 9.7 0.00 0.00 0.00 55 1016.2
20260506091520 5 133 3.2 6.4 0.00 0.00 0.00 54 1016.0
20260506091016 5 132 6.4 9.7 0.00 0.00 0.00 54 1015.8
20260506090514 5 115 1.6 11.3 0.00 0.00 0.00 54 1015.9
20260506090010 5 135 6.4 9.7 0.00 0.00 0.00 55 1016.1
20260506085507 5 131 8.0 8.0 0.00 0.00 0.00 56 1016.0
20260506085003 5 145 3.2 6.4 0.00 0.00 0.00 57 1016.0
20260506084500 5 128 3.2 6.4 0.00 0.00 0.00 56 1015.9
20260506083956 5 117 4.8 9.7 0.00 0.00 0.00 56 1015.9
20260506083454 5 130 4.8 6.4 0.00 0.00 0.00 55 1015.9
20260506082950 5 118 4.8 8.0 0.00 0.00 0.00 55 1015.8
20260506082448 5 122 4.8 8.0 0.00 0.00 0.00 55 1015.8
20260506081943 5 126 4.8 6.4 0.00 0.00 0.00 55 1015.8
20260506081442 5 116 3.2 6.4 0.00 0.00 0.00 55 1016.0
20260506080939 5 128 4.8 6.4 0.00 0.00 0.00 54 1015.8
20260506080436 5 135 4.8 6.4 0.00 0.00 0.00 54 1015.9